カタログに戻る

STARLINK-5485

運用中通信VLEO
NORAD 57261·PAYLOAD·🇺🇸 United States

打ち上げ Jul 7, 2023 から Vandenberg Space Force Base

Loading…

次のパス (今後24時間)

TLE

最新Source: CelesTrak SupGP

元期: Sep 14, 2026, 22:31 UTC

1 57261C 23094AV  26257.93868056  .00019658  00000+0  71190-3 0  2572
2 57261  43.0014  41.8552 0001437 271.1053 304.6894 15.27574134    18

AllMySatでSTARLINK-5485をリアルタイム追跡

Download on the App Store